Weather History for KCDJ - April, 2013

Change the Weather History Date:

Sunday, April 7, 2013

  Actual Average (KIRK) Record (KIRK)
Temperature  
Mean Temperature 58 °F 49 °F  
Max Temperature 77 °F 60 °F 81 °F (1922)
Min Temperature 41 °F 38 °F 17 °F (2007)
Degree Days  
Heating Degree Days 7 16  
Month to date heating degree days 119  
Since 1 July heating degree days 5406  
Cooling Degree Days 0 0  
Month to date cooling degree days 0  
Year to date cooling degree days 0  
Growing Degree Days 8 (Base 50)    
Moisture  
Dew Point 43 °F    
Average Humidity 58    
Maximum Humidity 87    
Minimum Humidity 30    
Precipitation  
Precipitation 0.20 in 0.10 in 0.96 in (1948)
Month to date precipitation 0.52  
Year to date precipitation 5.87  
Sea Level Pressure  
Sea Level Pressure 29.81 in    
Wind  
Wind Speed 4 mph (SE)    
Max Wind Speed 14 mph    
Max Gust Speed 24 mph    
T = Trace of Precipitation, MM = Missing Value Source: NWS Daily Summary

Daily Weather History Graph

Daily Weather History Graph

Search for Another Location

Airport or City:

Trip Planner

Search our weather history database for the weather conditions in past years. The results will help you decide how hot, cold, wet, or windy it might be!

Date:

Astronomy

Apr. 07, 2013 Rise Set
Actual Time 6:48 AM CDT 7:44 PM CDT
Civil Twilight 6:21 AM CDT 8:12 PM CDT
Nautical Twilight 5:48 AM CDT 8:45 PM CDT
Astronomical Twilight 5:14 AM CDT 9:19 PM CDT
Moon 5:06 AM CDT (4/7) 5:17 PM CDT (4/7)
Length of Visible Light 13h 51m
Length of Day
12h 56m
Waning Crescent, 8% of the Moon is Illuminated
Apr 7
Waning Crescent
Apr 10
New
Apr 18
First Quarter
Apr 25
Full
May 2
Last Quarter

Hourly Weather History & Observations

Time (CDT) Temp. Windchill Dew Point Humidity Pressure Visibility Wind Dir Wind Speed Gust Speed Precip Events Conditions
12:52 AM 48.9 °F - 41.0 °F 74% 29.81 in - Calm Calm - N/A   Unknown
1:52 AM 46.9 °F - 39.9 °F 77% 29.82 in - Calm Calm - N/A   Unknown
2:52 AM 46.9 °F - 39.9 °F 77% 29.82 in - Calm Calm - N/A   Unknown
3:52 AM 44.1 °F - 37.9 °F 79% 29.83 in - Calm Calm - N/A   Unknown
4:52 AM 46.0 °F - 39.0 °F 76% 29.85 in - Calm Calm - N/A   Unknown
5:52 AM 41.0 °F - 37.0 °F 86% 29.86 in - Calm Calm - N/A   Unknown
6:52 AM 42.1 °F 40.2 °F 37.9 °F 85% 29.88 in - NNE 3.5 mph - N/A   Unknown
7:52 AM 52.0 °F - 41.0 °F 66% 29.88 in - East 6.9 mph - N/A   Unknown
8:52 AM 53.1 °F - 43.0 °F 69% 29.90 in - SE 6.9 mph - N/A   Unknown
9:52 AM 57.9 °F - 44.1 °F 60% 29.90 in - ESE 6.9 mph - N/A   Unknown
10:52 AM 62.1 °F - 45.0 °F 53% 29.90 in - ESE 5.8 mph - N/A   Unknown
11:52 AM 66.0 °F - 46.0 °F 48% 29.89 in - SE 6.9 mph - N/A   Unknown
12:52 PM 72.0 °F - 43.0 °F 35% 29.86 in - SE 10.4 mph - N/A   Unknown
1:52 PM 73.0 °F - 43.0 °F 34% 29.84 in - SE 8.1 mph - N/A   Unknown
2:52 PM 75.9 °F - 42.1 °F 30% 29.81 in - South 13.8 mph 24.2 mph N/A   Unknown
3:52 PM 73.9 °F - 41.0 °F 30% 29.79 in - SSE 12.7 mph - N/A   Unknown
4:52 PM 73.9 °F - 43.0 °F 33% 29.77 in - SSE 6.9 mph - N/A   Unknown
5:52 PM 73.0 °F - 45.0 °F 37% 29.76 in - SE 8.1 mph - N/A   Unknown
6:52 PM 73.0 °F - 45.0 °F 37% 29.73 in - SSE 9.2 mph - N/A   Unknown
7:52 PM 68.0 °F - 41.0 °F 37% 29.70 in - SSE 5.8 mph - N/A   Unknown
8:52 PM 69.1 °F - 43.0 °F 39% 29.69 in - SE 13.8 mph - N/A   Unknown
9:52 PM 61.0 °F - 52.0 °F 72% 29.72 in - SSE 9.2 mph 19.6 mph 0.02 in   Unknown
10:52 PM 59.0 °F - 54.0 °F 83% 29.75 in - South 6.9 mph - 0.05 in   Unknown
11:52 PM 57.9 °F - 54.0 °F 87% 29.69 in - SE 5.8 mph - 0.13 in   Unknown